Weather History for Faith, SD

Change the Weather History Date:

Friday, June 7, 2013

  Actual Average Record
Temperature  
Mean Temperature 62 °F 62 °F  
Max Temperature 78 °F 74 °F 84 °F (2012)
Min Temperature 46 °F 50 °F 42 °F (1998)
Degree Days  
Heating Degree Days 3 5  
Month to date heating degree days 60 39  
Since 1 June heating degree days 60 39  
Since 1 July heating degree days 7594 7658  
Cooling Degree Days 0 1  
Month to date cooling degree days 0 7  
Year to date cooling degree days 13 19  
Since 1 June cooling degree days 0 7  
Growing Degree Days 10 (Base 50)    
Moisture  
Dew Point 51 °F    
Average Humidity 70    
Maximum Humidity 93    
Minimum Humidity 46    
Precipitation  
Precipitation 0.36 in 0.07 in 1.08 in (2005)
Month to date precipitation 0.36 0.56  
Year to date precipitation 8.00 6.86  
Sea Level Pressure  
Sea Level Pressure 29.87 in    
Wind  
Wind Speed 12 mph (SSE)    
Max Wind Speed 25 mph    
Max Gust Speed 30 mph    
T = Trace of Precipitation, MM = Missing Value Source: NWS Daily Summary

Daily Weather History Graph

Daily Weather History Graph

Search for Another Location

Airport:

Trip Planner

Search our weather history database for the weather conditions in past years. The results will help you decide how hot, cold, wet, or windy it might be!

Date:

Astronomy

Jun. 07, 2013 Rise Set
Actual Time 5:01 AM MDT 8:32 PM MDT
Civil Twilight 4:24 AM MDT 9:09 PM MDT
Nautical Twilight 3:36 AM MDT 9:58 PM MDT
Astronomical Twilight 2:33 AM MDT 11:01 PM MDT
Moon 4:29 AM MDT (6/7) 7:45 PM MDT (6/7)
Length of Visible Light 16h 44m
Length of Day
15h 30m
Waning Crescent, 1% of the Moon is Illuminated
Jun 7
Waning Crescent
Jun 8
New
Jun 16
First Quarter
Jun 23
Full
Jun 29
Last Quarter

Hourly Weather History & Observations

Time (MDT) Temp. Dew Point Humidity Pressure Visibility Wind Dir Wind Speed Gust Speed Precip Events Conditions
12:56 AM 48.0 °F 45.0 °F 89% 30.06 in - SSE 11.5 mph - N/A   Unknown
1:56 AM 48.0 °F 44.1 °F 86% 30.04 in - SSE 11.5 mph - N/A   Unknown
2:56 AM 48.0 °F 44.1 °F 86% 30.02 in - South 12.7 mph - N/A   Unknown
3:56 AM 46.9 °F 44.1 °F 90% 30.01 in - South 13.8 mph - N/A   Unknown
4:56 AM 46.9 °F 43.0 °F 86% 30.00 in - South 12.7 mph - N/A   Unknown
5:56 AM 48.9 °F 44.1 °F 83% 29.99 in - South 12.7 mph - N/A   Unknown
6:56 AM 53.1 °F 48.0 °F 83% 29.99 in - South 10.4 mph - N/A   Unknown
7:56 AM 60.1 °F 50.0 °F 69% 29.97 in - South 11.5 mph - N/A   Unknown
8:56 AM 62.1 °F 51.1 °F 67% 29.96 in - South 11.5 mph - N/A   Unknown
9:56 AM 66.9 °F 52.0 °F 59% 29.94 in - South 8.1 mph - N/A   Unknown
10:56 AM 70.0 °F 54.0 °F 57% 29.92 in - SSE 10.4 mph - N/A   Unknown
11:56 AM 72.0 °F 53.1 °F 51% 29.90 in - SSE 11.5 mph - N/A   Unknown
12:56 PM 75.0 °F 53.1 °F 46% 29.87 in - SSE 11.5 mph - N/A   Unknown
1:56 PM 75.9 °F 53.1 °F 45% 29.85 in - South 13.8 mph 21.9 mph N/A   Unknown
2:56 PM 75.9 °F 54.0 °F 46% 29.83 in - SSW 11.5 mph - N/A   Unknown
3:56 PM 75.9 °F 53.1 °F 45% 29.80 in - SSE 15.0 mph 19.6 mph N/A   Unknown
4:56 PM 75.0 °F 53.1 °F 46% 29.78 in - SSE 11.5 mph - N/A   Unknown
5:56 PM 73.0 °F 57.0 °F 57% 29.75 in - SSE 8.1 mph - N/A   Unknown
6:56 PM 72.0 °F 54.0 °F 53% 29.71 in - SE 15.0 mph - N/A   Unknown
7:56 PM 70.0 °F 53.1 °F 55% 29.70 in - SE 17.3 mph - N/A   Unknown
8:56 PM 68.0 °F 52.0 °F 56% 29.71 in - SE 13.8 mph - N/A   Unknown
9:56 PM 64.0 °F 54.0 °F 70% 29.76 in - SSE 12.7 mph 19.6 mph 0.02 in   Unknown
10:56 PM 60.1 °F 55.9 °F 86% 29.75 in - ESE 9.2 mph - 0.20 in   Unknown
11:56 PM 59.0 °F 55.9 °F 90% 29.66 in - SSE 18.4 mph - 0.14 in   Unknown